Location: *
(41.7492°S, 135.4150°W)
Time: 00:28:13
(UTC+00:00)

Meteor 1-25 Rocket - Pass Details

Date: 20 September 2021
Orbit: 837 x 891 km, 81.2° (Epoch: 25 October)

Event Time Altitude Azimuth Distance (km) Brightness Sun altitude
Rises 13:44:51 0° 337° (NNW) 3,456 7.1 -13.6°
Reaches altitude 10° 13:47:21 10° 332° (NNW) 2,518 6.3 -13.1°
Maximum altitude 13:52:55 51° 256° (WSW) 1,082 4.4 -12.1°
Drops below altitude 10° 13:58:29 10° 180° (S) 2,513 6.8 -11.1°
Sets 14:00:59 0° 175° (S) 3,449 7.6 -10.6°
